Overview Statistics Trail Chart Weather Telemetry Raw packets
 

This is the latest recevied weather packets stored in our database for station/object N1SU-13. If no packets are shown the sender has not sent any weather packets the latest 10 day(s).

<< 1 2 3 4 5 6 7 >>
Time Temp. Humidity Pressure Rain* Wind** Luminosity Snow
1788644485 18.89° C 60% 1015.6 hPa - - - -
1788643806 18.89° C 60% 1015.7 hPa - - - -
1788643553 18.33° C 61% 1015.6 hPa - - - -
1788643206 18.33° C 63% 1015.7 hPa - - - -
1788643123 17.78° C 63% 1015.7 hPa - - - -
1788643007 17.78° C 63% 1015.8 hPa - - - -
1788642549 17.78° C 64% 1015.8 hPa - - - -
1788641888 17.22° C 63% 1016.1 hPa - - - -
1788641194 17.22° C 64% 1016.2 hPa - - - -
1788640583 16.11° C 65% 1016.3 hPa - - - -
1788639970 15.56° C 67% 1016.5 hPa - - - -
1788639341 15° C 70% 1016.5 hPa - - - -
1788638777 15° C 70% 1016.5 hPa - - - -
1788638175 15° C 72% 1016.5 hPa - - - -
1788637560 14.44° C 72% 1016.6 hPa - - - -
1788637000 14.44° C 72% 1016.7 hPa - - - -
1788636328 14.44° C 73% 1016.7 hPa - - - -
1788635699 14.44° C 73% 1016.7 hPa - - - -
1788635073 14.44° C 74% 1016.9 hPa - - - -
1788634498 13.89° C 74% 1017 hPa - - - -
1788633928 13.89° C 76% 1017.1 hPa - - - -
1788633250 13.33° C 77% 1017.3 hPa - - - -
1788632654 13.33° C 80% 1017.3 hPa - - - -
1788632028 12.78° C 82% 1017.4 hPa - - - -
1788631470 12.78° C 83% 1017.4 hPa - - - -

* Rain since midnight (hover to see other rain measurements)
** Current wind speed in m/s (hover to see current wind gust speed)